FENGYUN 1C DEB, 31021

Orbit data source: Space-Track

FENGYUN 1C DEB, 31021 is space debris in SSO originally from a launch on Mon, 10 May 1999 UTC launched from the Taiyaun Space Center, China (TSC). Fengyun 1C debris stems from the Chinese weather satellite Fengyun-1C, which was intentionally destroyed by a Chinese anti-satellite missile in 2007. This event dramatically increased the amount of space debris, with thousands of trackable fragments posing hazards to satellites and human spaceflight. The Fengyun 1C debris cloud has become a focal point in discussions about space sustainability and the need for international regulations to prevent the creation of new debris.

Loading next visibility...
Identifier
31021, 1999-025BDP
Orbit
SSO
Country
Flag of CNCN / PRC
Related business
Manufacturer
Unknown
Mission
Spacecraft
Bus & Motor
Unknown
Mass
Unknown
Launch date (UTC)
Icon of a cake. It is the launch day of the satellite!1999-05-10 (27 years ago)
Launch vehicle
Unknown
Launch site
Taiyaun Space Center, China (TSC)
Object type
Payload
Rocket body
Debris
Shape & HBR
Unknown shape, 0.1 m
Radar Cross Section
Small (<0.1 m²)

Expand to show TLE details & history
Last TLE update: 1 week ago

TLE from 1 week ago
0 FENGYUN 1C DEB
1 31021U 99025BDP 26122.06012640  .00012436  00000-0  98132-3 0  9996
2 31021  98.3582 242.4966 0261757 153.8026 207.6703 14.77630360755032
Epoch: 2026-05-02T01:26Z
TLE epoch observation values (Epoch: 2026-05-02T01:26:34.920Z)
Latitude
-0.00005°
Longitude
0.86765°
Altitude
803.48 km
Speed
7.364 km/s
True Right ascension
16h 09m 59s
True Declination
0° 00' 00"
Sunlit
Object was in full shadow at epoch
Visualization orbit readout
Latitude
Unknown
Longitude
Unknown
Altitude
Unknown
Speed
Unknown
Apparent Right ascension
Unknown
Apparent Declination
Unknown
Sunlit
N/A
Visualization observer readout
Local Sidereal Time
23:44:58
Azimuth
Unknown
Elevation
Unknown
Doppler factor
Unknown
Orbital elements
Apogee altitude
817.42 km
Perigee altitude
450.332 km
Semi-major axis
7,012.013 km
Eccentricity
0.02618
Inclination
98.3582°
RAAN
242.4966°
Arg. of periapsis
153.8026°
True anomaly
206.31677°
Mean anomaly
207.6703°
Eccentric anomaly
206.98967°
Mean motion
3.6964 °/min
Orbital period
97.39 mins
BSTAR
0.00098132
Loading maneuver chart data...
Computing Atmospheric mass density...

Documentation

Showing up to 5 results
|